Hourly Data Report for August 18, 2021

KUGLUKTUK A
NUNAVUT
Current Station Operator: NAVCAN

67°49'00.000" N
115°08'38.000" W
22.60 m
2300903
71938
YCO

Download Data

Hourly Data (August 2021)
Hourly Data Report for August 18, 2021
TIME
LST
Temp Definition
°C
Dew Point Definition
°C
Rel Hum Definition
%
Precip. Amount Definition
mm

Wind Dir Definition
10's deg

Wind Spd Definition
km/h
Visibility Definition
km
Stn Press Definition
kPa
Hmdx Definition


Wind Chill Definition


Weather Definition


00:00 15.0 7.0 58   19 29 24.1 100.10     LegendNANA
01:00 14.8 7.1 60   19 28 24.1 100.08     LegendNANA
02:00 15.0 7.0 59   19 31 24.1 100.05     Mostly Cloudy
03:00 14.8 7.1 59   19 31 24.1 100.05     LegendNANA
04:00 14.2 7.1 62   20 25 24.1 100.06     LegendNANA
05:00 14.0 7.5 65   19 25 24.1 100.04     Cloudy
06:00 14.3 7.7 64   19 27 24.1 100.03     LegendNANA
07:00 14.6 8.3 66   20 15 24.1 100.07     Rain
08:00 13.9 9.7 76   22 9 24.1 100.07     Rain
09:00 15.0 9.7 70   22 17 24.1 100.07     Rain
10:00 15.2 10.0 71   25 20 24.1 100.16     Rain
11:00 8.6 7.9 95   1 22 8.1 100.26     Rain
12:00 8.5 7.7 95   36 20 12.9 100.34     Rain
13:00 7.7 6.8 94   36 21 19.3 100.43     LegendNANA
14:00 7.8 6.7 93   35 19 24.1 100.50     Cloudy
15:00 7.6 6.6 93   34 20 8.1 100.60     Rain
16:00 7.1 6.1 93   34 25 6.4 100.69     Rain, Fog
17:00 6.4 5.5 94   34 30 4.8 100.78     Rain, Fog
18:00 6.1 5.0 93   35 34 8.1 100.85     Rain, Fog
19:00 6.0 4.5 90   34 30 16.1 100.92     Rain
20:00 5.7 4.0 89   34 28 16.1 100.99     Rain
21:00 5.6 3.3 85   34 28 19.3 101.06     LegendNANA
22:00 5.6 3.6 87   34 18 19.3 101.12     LegendNANA
23:00 5.3 2.7 83   32 21 24.1 101.18     Cloudy

Notes on Data Quality.

Legend

  • E = Estimated
  • M = Missing
  • NA = Not Available*
  • [empty] = Indicates an unobserved value
Date modified: